Time,TemperatureF,DewpointF,PressureIn,WindDirection,WindDirectionDegrees,WindSpeedMPH,WindSpeedGustMPH,Humidity,HourlyPrecipIn,Conditions,Clouds,dailyrainin,SoftwareType,DateUTC
2013-08-12 00:02:00,61.8,57.9,29.95,South,180,0.0,1.0,87,0.00,,,-99.99,Weather View 32 v60,2013-08-12 04:02:00,
2013-08-12 00:10:00,61.6,57.7,29.96,South,180,0.0,1.0,87,0.00,,,-99.99,Weather View 32 v60,2013-08-12 04:10:00,
2013-08-12 00:15:00,61.5,57.6,29.96,South,180,0.0,1.0,87,0.00,,,-99.99,Weather View 32 v60,2013-08-12 04:15:00,
2013-08-12 00:25:00,61.3,57.4,29.96,South,180,0.0,1.0,87,0.00,,,-99.99,Weather View 32 v60,2013-08-12 04:25:00,
2013-08-12 00:30:00,61.2,57.3,29.96,South,180,0.0,1.0,87,0.00,,,-99.99,Weather View 32 v60,2013-08-12 04:30:00,
2013-08-12 00:40:00,61.0,57.4,29.96,South,180,0.0,1.0,88,0.00,,,-99.99,Weather View 32 v60,2013-08-12 04:40:00,
2013-08-12 00:45:00,60.9,57.3,29.96,South,180,0.0,1.0,88,0.00,,,-99.99,Weather View 32 v60,2013-08-12 04:45:00,
2013-08-12 00:55:00,60.7,57.1,29.96,South,180,0.0,0.0,88,0.00,,,-99.99,Weather View 32 v60,2013-08-12 04:55:00,
2013-08-12 01:03:00,60.6,57.0,29.96,South,180,0.0,0.0,88,0.00,,,-99.99,Weather View 32 v60,2013-08-12 05:03:00,
2013-08-12 01:10:00,60.4,57.1,29.95,South,180,0.0,0.0,89,0.00,,,-99.99,Weather View 32 v60,2013-08-12 05:10:00,
2013-08-12 01:15:00,60.3,57.0,29.96,South,180,0.0,0.0,89,0.00,,,-99.99,Weather View 32 v60,2013-08-12 05:15:00,
2013-08-12 01:20:00,60.3,57.0,29.95,South,180,0.0,0.0,89,0.00,,,-99.99,Weather View 32 v60,2013-08-12 05:20:00,
2013-08-12 01:30:00,60.1,56.8,29.96,SSE,158,0.0,0.0,89,0.00,,,-99.99,Weather View 32 v60,2013-08-12 05:30:00,
2013-08-12 01:40:00,59.9,57.0,29.95,South,180,0.0,0.0,90,0.00,,,-99.99,Weather View 32 v60,2013-08-12 05:40:00,
2013-08-12 01:45:00,59.8,56.9,29.95,South,180,0.0,1.0,90,0.00,,,-99.99,Weather View 32 v60,2013-08-12 05:45:00,
2013-08-12 01:55:00,59.7,57.1,29.95,South,180,0.0,1.0,91,0.00,,,-99.99,Weather View 32 v60,2013-08-12 05:55:00,
2013-08-12 02:03:00,59.6,57.0,29.96,South,180,0.0,1.0,91,0.00,,,-99.99,Weather View 32 v60,2013-08-12 06:03:00,
2013-08-12 02:10:00,59.4,56.8,29.96,SSE,158,0.0,1.0,91,0.00,,,-99.99,Weather View 32 v60,2013-08-12 06:10:00,
2013-08-12 02:20:00,59.4,56.8,29.96,South,180,2.0,2.0,91,0.00,,,-99.99,Weather View 32 v60,2013-08-12 06:20:00,
2013-08-12 02:30:00,59.2,56.9,29.96,SSE,158,0.0,2.0,92,0.00,,,-99.99,Weather View 32 v60,2013-08-12 06:30:00,
2013-08-12 02:40:00,59.1,56.8,29.95,South,180,0.0,2.0,92,0.00,,,-99.99,Weather View 32 v60,2013-08-12 06:40:00,
2013-08-12 02:45:00,59.1,56.8,29.95,SSE,158,0.0,2.0,92,0.00,,,-99.99,Weather View 32 v60,2013-08-12 06:45:00,
2013-08-12 02:55:00,59.1,57.1,29.96,South,180,0.0,2.0,93,0.00,,,-99.99,Weather View 32 v60,2013-08-12 06:55:00,
2013-08-12 03:04:00,59.1,57.1,29.96,South,180,0.0,2.0,93,0.00,,,-99.99,Weather View 32 v60,2013-08-12 07:04:00,
2013-08-12 03:10:00,58.9,56.9,29.96,South,180,0.0,2.0,93,0.00,,,-99.99,Weather View 32 v60,2013-08-12 07:10:00,
2013-08-12 03:20:00,58.9,56.9,29.96,South,180,0.0,2.0,93,0.00,,,-99.99,Weather View 32 v60,2013-08-12 07:20:00,
2013-08-12 03:30:00,58.9,56.9,29.95,South,180,0.0,1.0,93,0.00,,,-99.99,Weather View 32 v60,2013-08-12 07:30:00,
2013-08-12 03:35:00,58.8,56.8,29.95,South,180,0.0,1.0,93,0.00,,,-99.99,Weather View 32 v60,2013-08-12 07:35:00,
2013-08-12 03:45:00,58.8,56.8,29.95,South,180,0.0,1.0,93,0.00,,,-99.99,Weather View 32 v60,2013-08-12 07:45:00,
2013-08-12 03:55:00,58.8,57.1,29.95,South,180,0.0,0.0,94,0.00,,,-99.99,Weather View 32 v60,2013-08-12 07:55:00,
2013-08-12 04:00:00,58.8,57.1,29.95,South,180,0.0,0.0,94,0.00,,,-99.99,Weather View 32 v60,2013-08-12 08:00:00,
2013-08-12 04:10:00,58.7,57.0,29.95,East,90,0.0,1.0,94,0.00,,,-99.99,Weather View 32 v60,2013-08-12 08:10:00,
2013-08-12 04:15:00,58.7,57.0,29.95,South,180,0.0,1.0,94,0.00,,,-99.99,Weather View 32 v60,2013-08-12 08:15:00,
2013-08-12 04:25:00,58.7,57.0,29.95,South,180,0.0,1.0,94,0.00,,,-99.99,Weather View 32 v60,2013-08-12 08:25:00,
2013-08-12 04:30:00,58.7,57.0,29.95,South,180,0.0,1.0,94,0.00,,,-99.99,Weather View 32 v60,2013-08-12 08:30:00,
2013-08-12 04:35:00,58.7,57.0,29.95,South,180,0.0,1.0,94,0.00,,,-99.99,Weather View 32 v60,2013-08-12 08:35:00,
2013-08-12 04:45:00,58.6,56.9,29.95,South,180,0.0,1.0,94,0.00,,,-99.99,Weather View 32 v60,2013-08-12 08:45:00,
2013-08-12 04:50:00,58.6,56.9,29.95,South,180,0.0,1.0,94,0.00,,,-99.99,Weather View 32 v60,2013-08-12 08:50:00,
2013-08-12 05:00:00,58.6,56.9,29.95,South,180,0.0,1.0,94,0.00,,,-99.99,Weather View 32 v60,2013-08-12 09:00:00,
2013-08-12 05:05:00,58.5,56.8,29.94,South,180,0.0,1.0,94,0.00,,,-99.99,Weather View 32 v60,2013-08-12 09:05:00,
2013-08-12 05:15:00,58.6,56.9,29.95,South,180,0.0,0.0,94,0.00,,,-99.99,Weather View 32 v60,2013-08-12 09:15:00,
2013-08-12 05:20:00,58.6,57.2,29.95,South,180,0.0,0.0,95,0.00,,,-99.99,Weather View 32 v60,2013-08-12 09:20:00,
2013-08-12 05:30:00,58.6,57.2,29.95,South,180,0.0,1.0,95,0.00,,,-99.99,Weather View 32 v60,2013-08-12 09:30:00,
2013-08-12 05:40:00,58.8,57.4,29.95,South,180,0.0,1.0,95,0.00,,,-99.99,Weather View 32 v60,2013-08-12 09:40:00,
2013-08-12 05:50:00,58.8,57.4,29.95,South,180,0.0,1.0,95,0.00,,,-99.99,Weather View 32 v60,2013-08-12 09:50:00,
2013-08-12 05:55:00,58.8,57.4,29.95,South,180,0.0,1.0,95,0.00,,,-99.99,Weather View 32 v60,2013-08-12 09:55:00,
2013-08-12 06:00:00,58.8,57.4,29.95,South,180,0.0,1.0,95,0.00,,,-99.99,Weather View 32 v60,2013-08-12 10:00:00,
2013-08-12 06:06:00,58.8,57.4,29.95,South,180,0.0,1.0,95,0.00,,,-99.99,Weather View 32 v60,2013-08-12 10:06:00,
2013-08-12 06:15:00,58.7,57.3,29.95,South,180,0.0,1.0,95,0.00,,,-99.99,Weather View 32 v60,2013-08-12 10:15:00,
2013-08-12 06:25:00,58.6,57.2,29.96,South,180,0.0,1.0,95,0.00,,,-99.99,Weather View 32 v60,2013-08-12 10:25:00,
2013-08-12 06:35:00,58.6,57.2,29.95,South,180,0.0,1.0,95,0.00,,,-99.99,Weather View 32 v60,2013-08-12 10:35:00,
2013-08-12 06:45:00,58.6,57.2,29.96,South,180,0.0,1.0,95,0.00,,,-99.99,Weather View 32 v60,2013-08-12 10:45:00,
2013-08-12 06:55:00,58.8,57.7,29.96,South,180,0.0,1.0,96,0.00,,,-99.99,Weather View 32 v60,2013-08-12 10:55:00,
2013-08-12 07:00:00,59.0,57.9,29.96,South,180,0.0,1.0,96,0.00,,,-99.99,Weather View 32 v60,2013-08-12 11:00:00,
2013-08-12 07:06:00,59.0,57.9,29.96,South,180,0.0,1.0,96,0.00,,,-99.99,Weather View 32 v60,2013-08-12 11:06:00,
2013-08-12 07:15:00,59.2,57.8,29.96,South,180,0.0,1.0,95,0.00,,,-99.99,Weather View 32 v60,2013-08-12 11:15:00,
2013-08-12 07:20:00,59.3,57.9,29.96,South,180,0.0,1.0,95,0.00,,,-99.99,Weather View 32 v60,2013-08-12 11:20:00,
2013-08-12 07:30:00,59.5,58.1,29.97,South,180,0.0,1.0,95,0.00,,,-99.99,Weather View 32 v60,2013-08-12 11:30:00,
2013-08-12 07:40:00,59.9,58.8,29.97,South,180,0.0,1.0,96,0.00,,,-99.99,Weather View 32 v60,2013-08-12 11:40:00,
2013-08-12 07:45:00,60.1,59.0,29.96,South,180,0.0,1.0,96,0.00,,,-99.99,Weather View 32 v60,2013-08-12 11:45:00,
2013-08-12 07:50:00,60.2,59.1,29.96,South,180,0.0,1.0,96,0.00,,,-99.99,Weather View 32 v60,2013-08-12 11:50:00,
2013-08-12 07:55:00,60.4,59.2,29.96,SSE,158,0.0,1.0,96,0.00,,,-99.99,Weather View 32 v60,2013-08-12 11:55:00,
2013-08-12 08:05:00,60.8,59.6,29.96,South,180,1.0,3.0,96,0.00,,,-99.99,Weather View 32 v60,2013-08-12 12:05:00,
2013-08-12 08:10:00,61.1,59.9,29.96,SE,135,0.0,3.0,96,0.00,,,-99.99,Weather View 32 v60,2013-08-12 12:10:00,
2013-08-12 08:20:00,61.9,60.7,29.96,SSE,158,0.0,3.0,96,0.00,,,-99.99,Weather View 32 v60,2013-08-12 12:20:00,
2013-08-12 08:30:00,62.6,61.1,29.96,South,180,0.0,3.0,95,0.00,,,-99.99,Weather View 32 v60,2013-08-12 12:30:00,
2013-08-12 08:40:00,63.4,61.6,29.96,South,180,0.0,4.0,94,0.00,,,-99.99,Weather View 32 v60,2013-08-12 12:40:00,
2013-08-12 08:50:00,63.8,61.7,29.96,South,180,0.0,4.0,93,0.00,,,-99.99,Weather View 32 v60,2013-08-12 12:50:00,
2013-08-12 09:00:00,64.4,62.0,29.95,ESE,113,1.0,4.0,92,0.00,,,-99.99,Weather View 32 v60,2013-08-12 13:00:00,
2013-08-12 09:07:00,64.7,62.0,29.95,SE,135,0.0,4.0,91,0.00,,,-99.99,Weather View 32 v60,2013-08-12 13:07:00,
2013-08-12 09:15:00,65.3,62.0,29.95,SSE,158,0.0,4.0,89,0.00,,,-99.99,Weather View 32 v60,2013-08-12 13:15:00,
2013-08-12 09:25:00,65.7,61.7,29.95,SE,135,0.0,4.0,87,0.00,,,-99.99,Weather View 32 v60,2013-08-12 13:25:00,
2013-08-12 09:35:00,66.2,60.9,29.94,South,180,0.0,4.0,83,0.00,,,-99.99,Weather View 32 v60,2013-08-12 13:35:00,
2013-08-12 09:45:00,66.7,60.3,29.95,ESE,113,0.0,4.0,80,0.00,,,-99.99,Weather View 32 v60,2013-08-12 13:45:00,
2013-08-12 09:55:00,67.2,60.1,29.95,South,180,2.0,5.0,78,0.00,,,-99.99,Weather View 32 v60,2013-08-12 13:55:00,
2013-08-12 10:05:00,67.8,59.6,29.94,ENE,68,3.0,5.0,75,0.00,,,-99.99,Weather View 32 v60,2013-08-12 14:05:00,
2013-08-12 10:10:00,68.0,59.4,29.94,South,180,0.0,5.0,74,0.00,,,-99.99,Weather View 32 v60,2013-08-12 14:10:00,
2013-08-12 10:20:00,68.5,58.7,29.94,SSE,158,1.0,5.0,71,0.00,,,-99.99,Weather View 32 v60,2013-08-12 14:20:00,
2013-08-12 10:25:00,68.9,59.5,29.94,East,90,3.0,5.0,72,0.00,,,-99.99,Weather View 32 v60,2013-08-12 14:25:00,
2013-08-12 10:30:00,69.2,59.4,29.94,South,180,1.0,5.0,71,0.00,,,-99.99,Weather View 32 v60,2013-08-12 14:30:00,
2013-08-12 10:40:00,69.8,60.3,29.94,NNE,23,3.0,5.0,72,0.00,,,-99.99,Weather View 32 v60,2013-08-12 14:40:00,
2013-08-12 10:45:00,70.1,60.2,29.94,SSE,158,1.0,7.0,71,0.00,,,-99.99,Weather View 32 v60,2013-08-12 14:45:00,
2013-08-12 10:50:00,70.5,60.6,29.94,SE,135,2.0,7.0,71,0.00,,,-99.99,Weather View 32 v60,2013-08-12 14:50:00,
2013-08-12 10:55:00,71.1,60.8,29.94,NNE,23,5.0,7.0,70,0.00,,,-99.99,Weather View 32 v60,2013-08-12 14:55:00,
2013-08-12 11:00:00,71.7,61.0,29.94,SSE,158,2.0,7.0,69,0.00,,,-99.99,Weather View 32 v60,2013-08-12 15:00:00,
2013-08-12 11:08:00,72.3,61.1,29.94,NNE,23,2.0,7.0,68,0.00,,,-99.99,Weather View 32 v60,2013-08-12 15:08:00,
2013-08-12 11:15:00,73.5,61.4,29.94,ESE,113,3.0,7.0,66,0.00,,,-99.99,Weather View 32 v60,2013-08-12 15:15:00,
2013-08-12 11:20:00,73.9,60.9,29.94,NNE,23,3.0,7.0,64,0.00,,,-99.99,Weather View 32 v60,2013-08-12 15:20:00,
2013-08-12 11:30:00,74.6,61.1,29.93,ESE,113,2.0,7.0,63,0.00,,,-99.99,Weather View 32 v60,2013-08-12 15:30:00,
2013-08-12 11:40:00,75.7,61.7,29.93,East,90,2.0,7.0,62,0.00,,,-99.99,Weather View 32 v60,2013-08-12 15:40:00,
2013-08-12 11:45:00,75.8,59.9,29.93,South,180,1.0,6.0,58,0.00,,,-99.99,Weather View 32 v60,2013-08-12 15:45:00,
2013-08-12 11:55:00,76.6,60.7,29.93,East,90,2.0,6.0,58,0.00,,,-99.99,Weather View 32 v60,2013-08-12 15:55:00,
2013-08-12 12:00:00,76.9,60.0,29.92,NE,45,3.0,6.0,56,0.00,,,-99.99,Weather View 32 v60,2013-08-12 16:00:00,
2013-08-12 12:09:00,77.0,61.0,29.92,South,180,1.0,6.0,58,0.00,,,-99.99,Weather View 32 v60,2013-08-12 16:09:00,
2013-08-12 12:15:00,77.8,61.3,29.92,South,180,1.0,6.0,57,0.00,,,-99.99,Weather View 32 v60,2013-08-12 16:15:00,
2013-08-12 12:25:00,78.4,61.9,29.91,SE,135,1.0,6.0,57,0.00,,,-99.99,Weather View 32 v60,2013-08-12 16:25:00,
2013-08-12 12:35:00,79.0,59.8,29.91,ESE,113,1.0,6.0,52,0.00,,,-99.99,Weather View 32 v60,2013-08-12 16:35:00,
2013-08-12 12:45:00,79.1,58.8,29.91,East,90,3.0,6.0,50,0.00,,,-99.99,Weather View 32 v60,2013-08-12 16:45:00,
2013-08-12 12:55:00,79.4,59.6,29.91,SSE,158,1.0,6.0,51,0.00,,,-99.99,Weather View 32 v60,2013-08-12 16:55:00,
2013-08-12 13:05:00,79.7,60.5,29.91,South,180,0.0,6.0,52,0.00,,,-99.99,Weather View 32 v60,2013-08-12 17:05:00,
2013-08-12 13:15:00,79.8,58.9,29.90,NE,45,2.0,6.0,49,0.00,,,-99.99,Weather View 32 v60,2013-08-12 17:15:00,
2013-08-12 13:20:00,79.9,58.4,29.90,South,180,2.0,5.0,48,0.00,,,-99.99,Weather View 32 v60,2013-08-12 17:20:00,
2013-08-12 13:30:00,80.1,59.1,29.90,ESE,113,1.0,5.0,49,0.00,,,-99.99,Weather View 32 v60,2013-08-12 17:30:00,
2013-08-12 13:40:00,80.5,59.5,29.90,SSE,158,3.0,5.0,49,0.00,,,-99.99,Weather View 32 v60,2013-08-12 17:40:00,
2013-08-12 13:50:00,81.0,60.5,29.90,South,180,1.0,7.0,50,0.00,,,-99.99,Weather View 32 v60,2013-08-12 17:50:00,
2013-08-12 14:00:00,81.0,60.0,29.90,East,90,3.0,7.0,49,0.00,,,-99.99,Weather View 32 v60,2013-08-12 18:00:00,
2013-08-12 14:10:00,80.7,57.9,29.89,South,180,6.0,7.0,46,0.00,,,-99.99,Weather View 32 v60,2013-08-12 18:10:00,
2013-08-12 14:20:00,80.6,60.2,29.89,SE,135,1.0,7.0,50,0.00,,,-99.99,Weather View 32 v60,2013-08-12 18:20:00,
2013-08-12 14:35:00,80.9,60.4,29.89,South,180,3.0,7.0,50,0.00,,,-99.99,Weather View 32 v60,2013-08-12 18:35:00,
2013-08-12 14:45:00,81.2,60.2,29.89,ESE,113,3.0,6.0,49,0.00,,,-99.99,Weather View 32 v60,2013-08-12 18:45:00,
2013-08-12 14:55:00,81.1,60.6,29.88,SSE,158,1.0,7.0,50,0.00,,,-99.99,Weather View 32 v60,2013-08-12 18:55:00,
2013-08-12 15:00:00,81.3,60.8,29.88,SE,135,1.0,7.0,50,0.00,,,-99.99,Weather View 32 v60,2013-08-12 19:00:00,
2013-08-12 15:10:00,81.3,60.2,29.88,South,180,4.0,7.0,49,0.00,,,-99.99,Weather View 32 v60,2013-08-12 19:10:00,
2013-08-12 15:20:00,81.1,58.9,29.88,East,90,3.0,7.0,47,0.00,,,-99.99,Weather View 32 v60,2013-08-12 19:20:00,
2013-08-12 15:30:00,80.7,59.1,29.87,SE,135,1.0,7.0,48,0.00,,,-99.99,Weather View 32 v60,2013-08-12 19:30:00,
2013-08-12 15:40:00,80.1,59.7,29.87,NE,45,3.0,7.0,50,0.00,,,-99.99,Weather View 32 v60,2013-08-12 19:40:00,
2013-08-12 15:50:00,79.9,60.1,29.87,South,180,5.0,7.0,51,0.00,,,-99.99,Weather View 32 v60,2013-08-12 19:50:00,
2013-08-12 16:00:00,79.4,59.1,29.87,NE,45,3.0,7.0,50,0.00,,,-99.99,Weather View 32 v60,2013-08-12 20:00:00,
2013-08-12 16:10:00,78.9,58.6,29.86,South,180,4.0,7.0,50,0.00,,,-99.99,Weather View 32 v60,2013-08-12 20:10:00,
2013-08-12 16:15:00,78.7,59.0,29.86,South,180,0.0,7.0,51,0.00,,,-99.99,Weather View 32 v60,2013-08-12 20:15:00,
2013-08-12 16:25:00,78.4,59.3,29.86,South,180,0.0,7.0,52,0.00,,,-99.99,Weather View 32 v60,2013-08-12 20:25:00,
2013-08-12 16:35:00,78.4,59.8,29.86,SE,135,1.0,7.0,53,0.00,,,-99.99,Weather View 32 v60,2013-08-12 20:35:00,
2013-08-12 16:45:00,78.2,59.1,29.85,ENE,68,3.0,7.0,52,0.00,,,-99.99,Weather View 32 v60,2013-08-12 20:45:00,
2013-08-12 16:55:00,78.2,60.1,29.85,South,180,1.0,6.0,54,0.00,,,-99.99,Weather View 32 v60,2013-08-12 20:55:00,
2013-08-12 17:05:00,78.2,59.6,29.85,SSE,158,2.0,5.0,53,0.00,,,-99.99,Weather View 32 v60,2013-08-12 21:05:00,
2013-08-12 17:12:00,78.2,59.6,29.86,South,180,1.0,6.0,53,0.00,,,-99.99,Weather View 32 v60,2013-08-12 21:12:00,
2013-08-12 17:20:00,78.1,59.0,29.86,NE,45,1.0,6.0,52,0.00,,,-99.99,Weather View 32 v60,2013-08-12 21:20:00,
2013-08-12 17:25:00,78.0,59.4,29.86,NNE,23,2.0,7.0,53,0.00,,,-99.99,Weather View 32 v60,2013-08-12 21:25:00,
2013-08-12 17:30:00,77.9,59.9,29.86,SSE,158,1.0,7.0,54,0.00,,,-99.99,Weather View 32 v60,2013-08-12 21:30:00,
2013-08-12 17:40:00,77.7,59.1,29.85,South,180,1.0,7.0,53,0.00,,,-99.99,Weather View 32 v60,2013-08-12 21:40:00,
2013-08-12 17:55:00,77.3,59.3,29.85,South,180,4.0,7.0,54,0.00,,,-99.99,Weather View 32 v60,2013-08-12 21:55:00,
2013-08-12 18:00:00,77.2,59.2,29.84,ESE,113,3.0,7.0,54,0.00,,,-99.99,Weather View 32 v60,2013-08-12 22:00:00,
2013-08-12 18:10:00,76.9,59.4,29.85,SSE,158,2.0,7.0,55,0.00,,,-99.99,Weather View 32 v60,2013-08-12 22:10:00,
2013-08-12 18:20:00,76.5,60.1,29.85,East,90,1.0,7.0,57,0.00,,,-99.99,Weather View 32 v60,2013-08-12 22:20:00,
2013-08-12 18:30:00,76.2,59.8,29.85,SE,135,1.0,6.0,57,0.00,,,-99.99,Weather View 32 v60,2013-08-12 22:30:00,
2013-08-12 18:40:00,75.8,60.4,29.85,SE,135,1.0,6.0,59,0.00,,,-99.99,Weather View 32 v60,2013-08-12 22:40:00,
2013-08-12 18:45:00,75.6,60.2,29.85,South,180,1.0,6.0,59,0.00,,,-99.99,Weather View 32 v60,2013-08-12 22:45:00,
2013-08-12 18:55:00,75.3,60.4,29.84,SSE,158,2.0,5.0,60,0.00,,,-99.99,Weather View 32 v60,2013-08-12 22:55:00,
2013-08-12 19:05:00,74.9,60.5,29.84,South,180,1.0,5.0,61,0.00,,,-99.99,Weather View 32 v60,2013-08-12 23:05:00,
2013-08-12 19:10:00,74.6,60.7,29.84,South,180,0.0,5.0,62,0.00,,,-99.99,Weather View 32 v60,2013-08-12 23:10:00,
2013-08-12 19:15:00,74.4,61.8,29.84,SSE,158,1.0,5.0,65,0.00,,,-99.99,Weather View 32 v60,2013-08-12 23:15:00,
2013-08-12 19:25:00,73.9,61.8,29.84,South,180,0.0,5.0,66,0.00,,,-99.99,Weather View 32 v60,2013-08-12 23:25:00,
2013-08-12 19:35:00,73.4,62.2,29.85,South,180,0.0,5.0,68,0.00,,,-99.99,Weather View 32 v60,2013-08-12 23:35:00,
2013-08-12 19:40:00,73.2,62.4,29.85,South,180,0.0,4.0,69,0.00,,,-99.99,Weather View 32 v60,2013-08-12 23:40:00,
2013-08-12 19:50:00,72.7,62.7,29.85,South,180,0.0,4.0,71,0.00,,,-99.99,Weather View 32 v60,2013-08-12 23:50:00,
2013-08-12 20:00:00,72.2,62.6,29.85,South,180,0.0,4.0,72,0.00,,,-99.99,Weather View 32 v60,2013-08-13 00:00:00,
2013-08-12 20:10:00,71.7,62.6,29.85,South,180,0.0,4.0,73,0.00,,,-99.99,Weather View 32 v60,2013-08-13 00:10:00,
2013-08-12 20:15:00,71.4,62.7,29.85,South,180,0.0,4.0,74,0.00,,,-99.99,Weather View 32 v60,2013-08-13 00:15:00,
2013-08-12 20:25:00,70.9,62.6,29.85,South,180,0.0,1.0,75,0.00,,,-99.99,Weather View 32 v60,2013-08-13 00:25:00,
2013-08-12 20:35:00,70.4,61.7,29.85,South,180,1.0,1.0,74,0.00,,,-99.99,Weather View 32 v60,2013-08-13 00:35:00,
2013-08-12 20:45:00,70.0,61.3,29.86,South,180,0.0,1.0,74,0.00,,,-99.99,Weather View 32 v60,2013-08-13 00:45:00,
2013-08-12 20:55:00,69.6,61.3,29.86,South,180,1.0,1.0,75,0.00,,,-99.99,Weather View 32 v60,2013-08-13 00:55:00,
2013-08-12 21:05:00,69.2,60.9,29.86,SSE,158,1.0,2.0,75,0.00,,,-99.99,Weather View 32 v60,2013-08-13 01:05:00,
2013-08-12 21:14:00,69.0,60.7,29.86,SSE,158,1.0,2.0,75,0.00,,,-99.99,Weather View 32 v60,2013-08-13 01:14:00,
2013-08-12 21:20:00,68.8,61.3,29.86,SSE,158,1.0,3.0,77,0.00,,,-99.99,Weather View 32 v60,2013-08-13 01:20:00,
2013-08-12 21:25:00,68.6,61.1,29.86,SSE,158,1.0,3.0,77,0.00,,,-99.99,Weather View 32 v60,2013-08-13 01:25:00,
2013-08-12 21:30:00,68.5,61.0,29.86,SSE,158,0.0,3.0,77,0.00,,,-99.99,Weather View 32 v60,2013-08-13 01:30:00,
2013-08-12 21:35:00,68.4,61.6,29.86,SSE,158,0.0,3.0,79,0.00,,,-99.99,Weather View 32 v60,2013-08-13 01:35:00,
2013-08-12 21:45:00,68.1,61.0,29.86,SSE,158,1.0,3.0,78,0.00,,,-99.99,Weather View 32 v60,2013-08-13 01:45:00,
2013-08-12 21:55:00,67.9,61.1,29.86,SSE,158,2.0,3.0,79,0.00,,,-99.99,Weather View 32 v60,2013-08-13 01:55:00,
2013-08-12 22:05:00,67.7,61.3,29.85,SSE,158,1.0,3.0,80,0.00,,,-99.99,Weather View 32 v60,2013-08-13 02:05:00,
2013-08-12 22:10:00,67.6,61.2,29.85,SSE,158,1.0,3.0,80,0.00,,,-99.99,Weather View 32 v60,2013-08-13 02:10:00,
2013-08-12 22:15:00,67.5,61.4,29.85,SSE,158,0.0,3.0,81,0.00,,,-99.99,Weather View 32 v60,2013-08-13 02:15:00,
2013-08-12 22:25:00,67.3,61.6,29.85,SSE,158,0.0,3.0,82,0.00,,,-99.99,Weather View 32 v60,2013-08-13 02:25:00,
2013-08-12 22:30:00,67.2,61.5,29.85,SSE,158,1.0,3.0,82,0.00,,,-99.99,Weather View 32 v60,2013-08-13 02:30:00,
2013-08-12 22:40:00,67.1,61.4,29.85,SSE,158,1.0,3.0,82,0.00,,,-99.99,Weather View 32 v60,2013-08-13 02:40:00,
2013-08-12 22:50:00,66.9,61.6,29.86,SSE,158,1.0,3.0,83,0.00,,,-99.99,Weather View 32 v60,2013-08-13 02:50:00,
2013-08-12 23:00:00,66.7,61.7,29.85,SSE,158,1.0,3.0,84,0.00,,,-99.99,Weather View 32 v60,2013-08-13 03:00:00,
2013-08-12 23:05:00,66.5,61.5,29.85,SSE,158,1.0,3.0,84,0.00,,,-99.99,Weather View 32 v60,2013-08-13 03:05:00,
2013-08-12 23:15:00,66.4,61.4,29.85,SSE,158,0.0,3.0,84,0.00,,,-99.99,Weather View 32 v60,2013-08-13 03:15:00,
2013-08-12 23:25:00,66.3,61.6,29.86,SSE,158,1.0,3.0,85,0.00,,,-99.99,Weather View 32 v60,2013-08-13 03:25:00,
2013-08-12 23:30:00,66.3,61.6,29.85,SE,135,2.0,3.0,85,0.00,,,-99.99,Weather View 32 v60,2013-08-13 03:30:00,
2013-08-12 23:40:00,66.1,61.4,29.85,SE,135,0.0,3.0,85,0.00,,,-99.99,Weather View 32 v60,2013-08-13 03:40:00,
2013-08-12 23:55:00,66.0,61.3,29.85,SE,135,1.0,3.0,85,0.00,,,-99.99,Weather View 32 v60,2013-08-13 03:55:00,